Location: Keppel Henge
(44.7900°N, 80.9447°W)
Time: 05:14:52
(UTC-04:00)

Vanguard 1 - Visible Passes

Search period start: 19 October 2017 00:00
Search period end: 29 October 2017 00:00
Orbit: 650 x 3834 km, 34.3° (Epoch: 18 October)

Date Brightness Start Highest point End Pass type
(mag) Time Alt. Az. Time Alt. Az. Time Alt. Az.
19 Oct 13.6 01:10:35 23° E 01:10:35 23° E 01:18:12 10° E visible
19 Oct 12.6 03:23:18 59° SSE 03:23:18 59° SSE 03:45:55 10° E visible
19 Oct 12.9 05:36:00 30° WSW 05:48:43 59° SSW 06:10:56 10° ESE visible
20 Oct 13.4 01:30:23 29° ESE 01:30:23 29° ESE 01:40:04 10° E visible
20 Oct 12.5 03:43:06 60° S 03:44:30 61° S 04:07:21 10° ESE visible
20 Oct 13.0 05:55:49 25° W 06:09:58 55° SSW 06:31:45 10° SE visible
21 Oct 13.2 01:50:11 34° ESE 01:50:11 34° ESE 02:01:48 10° E visible
21 Oct 12.5 04:02:54 58° SSW 04:05:47 62° S 04:28:43 10° ESE visible
21 Oct 13.2 06:15:37 20° W 06:31:07 50° SSW 06:52:21 10° SE visible
22 Oct 13.0 02:10:02 40° ESE 02:10:02 40° ESE 02:23:27 10° E visible
22 Oct 12.5 04:22:45 53° SW 04:27:05 60° S 04:49:57 10° ESE visible
22 Oct 13.3 06:35:28 15° W 06:52:11 45° SSW 07:12:39 10° SE visible
23 Oct 12.9 02:29:55 45° ESE 02:29:55 45° ESE 02:45:02 10° E visible
23 Oct 12.5 04:42:38 48° SW 04:48:22 58° SSW 05:11:01 10° ESE visible
23 Oct 13.4 06:55:21 11° W 07:13:07 39° SW 07:32:37 10° SSE visible
24 Oct 13.9 00:37:06 13° E 00:37:06 13° E 00:38:50 10° E visible
24 Oct 12.7 02:49:50 50° SE 02:49:50 50° SE 03:06:32 10° ESE visible
24 Oct 12.6 05:02:33 41° WSW 05:09:37 54° SSW 05:31:53 10° SE visible
24 Oct 13.5 07:16:39 10° W 07:33:56 32° SW 07:52:07 10° SSE visible
25 Oct 13.7 00:57:03 17° E 00:57:03 17° E 01:00:35 10° E visible
25 Oct 12.6 03:09:47 54° SSE 03:09:47 54° SSE 03:27:57 10° ESE visible
25 Oct 12.8 05:22:30 35° WSW 05:30:48 49° SSW 05:52:31 10° SE visible
26 Oct 13.6 01:17:02 20° E 01:17:02 20° E 01:22:14 10° E visible
26 Oct 12.6 03:29:46 56° SSE 03:29:46 56° SSE 03:49:14 10° ESE visible
26 Oct 12.9 05:42:30 29° WSW 05:51:55 43° SSW 06:12:49 10° SE visible
27 Oct 13.5 01:37:04 24° ESE 01:37:04 24° ESE 01:43:50 10° E visible
27 Oct 12.5 03:49:48 55° S 03:49:48 55° S 04:10:21 10° ESE visible
27 Oct 13.0 06:02:32 24° WSW 06:12:56 37° SSW 06:32:44 10° SSE visible
28 Oct 13.4 01:57:07 28° ESE 01:57:07 28° ESE 02:05:21 10° ESE visible
28 Oct 12.6 04:09:52 51° SSW 04:09:52 51° SSW 04:31:15 10° SE visible
28 Oct 13.2 06:22:36 18° WSW 06:33:52 31° SW 06:52:11 10° SSE visible
